Location: Julian California
(33.0790°N, 116.6010°W)
Time: 07:45:59
(UTC-07:00)

Resurs 01 Rocket - Pass Details

Date: 19 May 2017
Orbit: 634 x 645 km, 98.1° (Epoch: 22 September)

Event Time Altitude Azimuth Distance (km) Brightness Sun altitude
Rises 20:27:02 0° 174° (S) 2,935 4.7 -9.1°
Reaches altitude 10° 20:29:15 10° 177° (S) 2,028 3.9 -9.5°
Maximum altitude 20:33:38 64° 259° (W) 710 2.1 -10.3°
Drops below altitude 10° 20:38:02 10° 341° (NNW) 2,035 5.0 -11.1°
Sets 20:40:16 0° 344° (NNW) 2,946 5.9 -11.5°
